TimeEST,TemperatureF,Dew PointF,Humidity,Sea Level PressureIn,VisibilityMPH,Wind Direction,Wind SpeedMPH,Gust SpeedMPH,PrecipitationIn,Events,Conditions,WindDirDegrees,DateUTC
12:14 AM,33.6,28.8,82,30.08,10.0,Calm,Calm,-,N/A,,Overcast,0,2012-12-20 05:14:00
12:35 AM,33.8,28.2,80,30.07,10.0,Calm,Calm,-,N/A,,Overcast,0,2012-12-20 05:35:00
12:54 AM,33.6,28.4,81,30.08,10.0,SSE,3.5,-,N/A,,Overcast,160,2012-12-20 05:54:00
1:15 AM,34.0,28.4,80,30.07,10.0,East,3.5,-,N/A,,Overcast,100,2012-12-20 06:15:00
1:35 AM,34.2,29.1,82,30.05,10.0,East,4.6,-,N/A,,Overcast,80,2012-12-20 06:35:00
1:55 AM,34.0,29.7,84,30.04,10.0,ESE,4.6,-,N/A,,Overcast,110,2012-12-20 06:55:00
2:15 AM,34.3,30.2,85,30.03,10.0,East,4.6,-,N/A,,Overcast,100,2012-12-20 07:15:00
2:34 AM,34.2,30.2,85,30.02,10.0,East,5.8,-,N/A,,Mostly Cloudy,100,2012-12-20 07:34:00
2:54 AM,34.2,30.2,85,30.03,10.0,ESE,4.6,-,N/A,,Mostly Cloudy,120,2012-12-20 07:54:00
3:15 AM,34.0,29.7,84,30.02,10.0,ESE,5.8,-,N/A,,Overcast,110,2012-12-20 08:15:00
3:34 AM,33.8,29.3,84,30.03,10.0,ESE,5.8,-,N/A,,Overcast,120,2012-12-20 08:34:00
3:55 AM,33.6,29.3,84,30.01,10.0,ESE,5.8,-,N/A,,Overcast,120,2012-12-20 08:55:00
4:14 AM,33.8,30.0,86,30.00,10.0,East,9.2,-,N/A,,Overcast,100,2012-12-20 09:14:00
4:35 AM,34.7,30.9,86,29.98,10.0,ESE,9.2,-,N/A,,Overcast,110,2012-12-20 09:35:00
4:55 AM,34.9,31.1,86,29.98,10.0,ESE,8.1,-,N/A,,Overcast,120,2012-12-20 09:55:00
5:15 AM,35.1,30.7,84,29.95,10.0,East,10.4,-,N/A,,Overcast,100,2012-12-20 10:15:00
5:35 AM,35.1,30.2,82,29.95,10.0,East,11.5,-,N/A,,Overcast,100,2012-12-20 10:35:00
5:55 AM,35.2,30.0,81,29.94,10.0,East,12.7,-,N/A,,Overcast,100,2012-12-20 10:55:00
6:14 AM,35.6,29.8,80,29.93,10.0,ESE,11.5,-,N/A,,Overcast,110,2012-12-20 11:14:00
6:35 AM,35.2,30.2,82,29.92,10.0,ESE,12.7,17.3,N/A,,Overcast,110,2012-12-20 11:35:00
6:55 AM,33.6,31.6,92,29.91,2.0,ESE,10.4,17.3,N/A,Snow,Light Snow,110,2012-12-20 11:55:00
7:15 AM,33.1,32.0,96,29.89,2.0,East,10.4,-,N/A,Snow,Light Snow,100,2012-12-20 12:15:00
7:34 AM,32.9,32.0,96,29.87,1.0,East,10.4,-,N/A,Snow,Snow,90,2012-12-20 12:34:00
7:54 AM,32.9,32.4,98,29.85,1.8,East,11.5,-,N/A,Snow,Light Snow,90,2012-12-20 12:54:00
8:14 AM,32.9,32.2,97,29.83,2.0,East,9.2,-,N/A,Snow,Light Snow,80,2012-12-20 13:14:00
8:34 AM,33.1,32.5,98,29.81,1.5,East,12.7,18.4,N/A,Snow,Light Snow,90,2012-12-20 13:34:00
8:55 AM,33.4,32.7,97,29.79,2.0,East,16.1,-,N/A,Snow,Light Snow,90,2012-12-20 13:55:00
9:15 AM,33.3,32.5,97,29.77,2.0,East,15.0,19.6,N/A,Snow,Light Snow,90,2012-12-20 14:15:00
9:35 AM,33.8,32.9,96,29.75,4.0,East,18.4,23.0,N/A,Snow,Light Snow,90,2012-12-20 14:35:00
9:55 AM,34.0,32.5,94,29.74,2.0,East,20.7,26.5,N/A,Snow,Light Snow,90,2012-12-20 14:55:00
10:15 AM,33.8,32.5,95,29.71,1.8,East,19.6,25.3,N/A,Snow,Light Snow,90,2012-12-20 15:15:00
10:35 AM,33.6,32.4,95,29.71,1.0,East,17.3,24.2,N/A,Snow,Light Snow,90,2012-12-20 15:35:00
10:54 AM,33.4,32.4,96,29.69,1.5,East,17.3,25.3,N/A,Snow,Light Snow,90,2012-12-20 15:54:00
11:15 AM,33.6,32.2,94,29.68,1.2,East,17.3,21.9,N/A,Snow,Light Snow,90,2012-12-20 16:15:00
11:35 AM,33.8,32.4,94,29.65,1.5,East,17.3,24.2,N/A,Snow,Light Snow,90,2012-12-20 16:35:00
11:54 AM,33.6,32.2,94,29.62,1.2,East,19.6,23.0,N/A,Snow,Light Snow,80,2012-12-20 16:54:00
12:15 PM,33.4,32.4,96,29.58,1.5,East,19.6,26.5,N/A,Snow,Light Snow,80,2012-12-20 17:15:00
12:35 PM,33.6,32.4,95,29.55,1.2,East,23.0,27.6,N/A,Snow,Light Snow,90,2012-12-20 17:35:00
12:54 PM,33.8,32.5,95,29.52,2.0,East,23.0,28.8,N/A,Snow,Light Snow,90,2012-12-20 17:54:00
1:15 PM,34.2,32.7,94,29.50,4.0,East,21.9,27.6,N/A,Snow,Light Snow,90,2012-12-20 18:15:00
1:35 PM,34.2,32.4,93,29.46,5.0,East,19.6,28.8,N/A,Snow,Light Snow,80,2012-12-20 18:35:00
1:55 PM,34.0,32.4,94,29.44,3.0,East,20.7,27.6,N/A,Snow,Light Snow,80,2012-12-20 18:55:00
2:15 PM,34.0,32.5,94,29.46,2.5,East,16.1,25.3,N/A,Snow,Light Snow,90,2012-12-20 19:15:00
2:34 PM,33.8,32.2,94,29.43,1.0,East,21.9,29.9,N/A,Snow,Light Snow,80,2012-12-20 19:34:00
2:55 PM,33.3,32.4,96,29.44,1.0,East,11.5,18.4,N/A,Snow,Light Snow,80,2012-12-20 19:55:00
3:15 PM,33.3,32.4,96,29.43,1.2,ENE,10.4,-,N/A,Snow,Light Snow,70,2012-12-20 20:15:00
3:35 PM,33.3,32.5,97,29.42,1.5,ENE,10.4,-,N/A,Snow,Light Snow,70,2012-12-20 20:35:00
3:55 PM,32.9,32.4,98,29.41,1.2,ENE,8.1,-,N/A,Snow,Light Snow,60,2012-12-20 20:55:00
4:15 PM,33.1,32.5,98,29.41,1.0,ENE,10.4,19.6,N/A,Snow,Light Snow,60,2012-12-20 21:15:00
4:33 PM,32.9,32.4,98,29.41,0.8,ENE,13.8,-,N/A,Snow,Light Snow,60,2012-12-20 21:33:00
4:54 PM,32.9,32.4,98,29.39,1.5,NE,15.0,19.6,N/A,Snow,Light Snow,50,2012-12-20 21:54:00
5:14 PM,33.3,32.5,97,29.37,4.0,NE,17.3,21.9,N/A,Snow,Light Snow,40,2012-12-20 22:14:00
5:35 PM,33.8,32.9,96,29.37,3.0,NE,17.3,27.6,N/A,Snow,Light Snow,50,2012-12-20 22:35:00
5:54 PM,33.4,32.5,96,29.36,2.5,NE,17.3,26.5,N/A,Snow,Light Snow,50,2012-12-20 22:54:00
6:15 PM,33.4,32.9,98,29.35,3.0,NE,19.6,27.6,N/A,Snow,Light Snow,50,2012-12-20 23:15:00
6:34 PM,33.4,32.5,96,29.33,3.0,NE,18.4,28.8,N/A,Snow,Light Snow,50,2012-12-20 23:34:00
6:55 PM,33.6,32.7,96,29.33,4.0,NE,17.3,29.9,N/A,Snow,Light Snow,50,2012-12-20 23:55:00
7:14 PM,33.1,32.4,97,29.32,1.2,NE,16.1,25.3,N/A,Snow,Light Snow,50,2012-12-21 00:14:00
7:34 PM,32.9,32.2,97,29.31,1.0,NE,13.8,24.2,N/A,Snow,Light Snow,40,2012-12-21 00:34:00
7:53 PM,32.7,32.2,98,29.31,1.2,NE,16.1,24.2,N/A,Snow,Snow,40,2012-12-21 00:53:00
8:05 PM,32.7,32.2,98,29.30,1.0,NNE,16.1,23.0,N/A,Snow,Snow,30,2012-12-21 01:05:00
8:34 PM,32.7,32.2,98,29.30,1.5,NE,13.8,20.7,N/A,Snow,Light Snow,40,2012-12-21 01:34:00
8:51 PM,32.4,32.0,99,29.30,1.5,NE,17.3,24.2,N/A,Snow,Light Snow,40,2012-12-21 01:51:00
9:14 PM,32.2,32.0,99,29.29,0.8,NE,10.4,19.6,N/A,Snow,Snow,40,2012-12-21 02:14:00
9:34 PM,32.0,32.0,100,29.29,1.2,NE,16.1,24.2,N/A,Snow,Light Snow,40,2012-12-21 02:34:00
9:54 PM,32.0,31.6,99,29.30,0.8,NE,16.1,20.7,N/A,Snow,Snow,40,2012-12-21 02:54:00
10:15 PM,31.6,31.1,98,29.30,0.8,NE,11.5,21.9,N/A,Snow,Snow,40,2012-12-21 03:15:00
10:34 PM,31.1,30.7,99,29.30,0.8,NE,11.5,18.4,N/A,Snow,Snow,40,2012-12-21 03:34:00
10:54 PM,31.1,30.2,96,29.30,1.2,NNE,10.4,21.9,N/A,Snow,Light Snow,30,2012-12-21 03:54:00
11:14 PM,30.9,30.0,96,29.31,1.8,NE,11.5,23.0,N/A,Snow,Light Snow,40,2012-12-21 04:14:00
11:35 PM,30.9,29.8,96,29.31,2.0,NNE,12.7,19.6,N/A,Snow,Light Snow,30,2012-12-21 04:35:00
11:54 PM,30.9,29.8,96,29.32,1.5,NNE,12.7,18.4,N/A,Snow,Light Snow,20,2012-12-21 04:54:00